Starlink 11127

operational
NORAD ID: 60119 Int'l Des: 2024-118 Owner: SPXS Country: US Constellation: starlink
LEOCIRCULAR

关于 Starlink 11127

正在加载描述...

实时位置

正在加载3D地球...

即将过境

高度历史

Altitude vs Time

uPlot chart will show altitude changes over time

两行轨道根数

1 60119U 24118G 25305.52323962 .00008070 00000-0 71445-4 0 9990
2 60119 53.1581 133.0527 0001357 64.9811 295.1348 15.69695053 77867
Epoch: Nov 1, 2025 • Age: 11 hours

当前状态

高度 364.8 km
速度 7.70 km/s
星下点 49.85°N, 148.44°W
发射日期 Jun 24, 2024
运行时间 1.3 years
类型 internet

技术详情

分类 Payload
质量 960.00 kg
干质量 910.00 kg
总质量 960.00 kg
长度 0.30 m
直径 4.10 m
跨度 29.00 m
形状 Box + pan
制造商 SPXS
平台类型 Starlink V2MD
阶段状态 In Orbit
所有者/国家 SPXS/US

大型星座

Loading constellations...